SCP
0 0 -0 1 0 0 -0 -0 0 0 0 0 0 0 0 0 0 0 0 0 0 0 0 0 0 0 0 0 0 0 0 0 0 0 0 0 0 0 0 0 0 0 0
1 0 0 0 0 0 -1 -0 0 0 0 0 0 0 0 0 0 0 0 0 0 0 0 0 0 0 0 0 0 0 0 0 0 0 0 0 0 0 0 0 0 0 0
1 0 0 -0 0 -0 0 -0 0 0 0 0 0 0 0 0 0 0 0 0 0 0 0 0 0 0 0 0 0 0 0 0 0 0 0 0 0 0 0 0 0 0 0
0 0 -0 -0 0 -0 0 0 -0 0 0 0 0 0 0 0 0 0 0 -0 0 0 0 0 0 0 0 0 0 0 0 0 0 0 0 0 0 0 0 0 0 0 0
-0 -0 -0 0 0 0 0 0 0 0 0 0 0 0 0 0 0 0 0 -0 -0 0 0 0 0 0 0 0 0 0 0 0 0 0 0 0 0 0 0 0 0 0 0
0 0 0 -0 0 -0 0 0 0 0 0 0 0 0 0 0 0 0 0 -0 0 0 -0 -0 0 0 0 0 0 0 0 0 0 0 0 0 0 0 0 0 0 0 0
0 -0 0 0 0 0 0 0 0 0 0 0 0 0 0 0 0 0 0 0 0 0 0 -0 0 0 0 0 0 0 0 0 0 0 0 0 0 0 0 0 0 0 0
0 -0 0 0 0 0 0 0 0 0 0 0 0 0 0 0 0 0 0 0 -0 -0 -0 -0 0 0 0 0 0 0 0 0 0 0 0 0 0 0 0 0 0 0 0
0 0 0 0 0 0 0 0 0 0 0 0 0 0 0 0 0 0 -0 -0 -0 -0 -0 0 0 0 0 0 0 0 0 0 0 0 0 0 0 0 0 0 0 0 0
0 0 0 0 0 0 0 0 0 0 0 0 0 0 0 0 0 0 0 -0 -0 0 -0 -0 0 0 0 0 0 0 0 0 0 0 0 0 0 0 0 0 0 0 0
0 -0 0 0 0 0 0 0 0 -0 0 0 0 0 0 0 0 0 0 0 -0 -0 0 0 0 0 0 0 0 0 0 0 0 0 0 0 0 0 0 0 0 0 0
0 0 0 0 0 0 0 0 0 -0 0 0 0 0 0 0 0 0 0 0 0 0 0 0 -0 -0 0 0 0 0 0 0 0 0 0 0 0 0 0 0 0 0 0
2 0 0 0 0 0 -0 0 0 0 0 0 0 0 0 0 0 0 0 0 0 0 -0 -0 -0 -0 -0 -0 0 0 0 0 0 0 0 0 0 0 0 0 0 0 0
2 -0 -0 -0 0 0 0 0 0 0 0 0 0 0 0 0 0 0 0 -0 0 -0 -0 -0 -0 -0 -0 -0 -0 -0 0 0 0 0 0 0 0 0 0 0 0 0 0
0 -0 0 0 0 0 0 0 0 0 0 0 0 0 0 0 0 0 0 -0 -0 -0 -0 -0 -0 -0 -0 0 0 0 0 0 0 0 0 0 0 0 0 0 0 0 0
-0 -0 0 -0 0 0 0 0 0 0 0 0 0 0 0 0 0 0 0 -0 -0 -0 -0 -0 -0 -0 -0 -0 -0 -0 -0 0 0 0 0 0 0 0 0 0 0 0 0
-0 -0 -0 0 0 0 0 0 0 0 0 0 0 0 0 0 0 0 0 0 -0 0 0 0 0 0 0 0 0 0 0 0 0 0 0 0 0 0 0 0 0 0 0
0 0 0 0 0 0 0 0 0 0 0 0 0 0 0 0 0 -0 0 0 0 0 0 0 0 0 0 0 0 -0 0 0 0 0 0 0 0 0 0 0 0 0 0
0 0 0 0 0 0 0 0 0 0 0 0 0 0 0 0 0 0 0 0 0 0 0 0 0 0 0 0 0 0 0 0 0 0 0 0 0 0 0 0 0 0 0
0 0 0 0 0 0 0 0 0 0 0 0 0 0 -0 -0 -0 -0 0 0 0 0 0 0 0 0 0 0 0 0 0 0 0 0 0 0 0 0 0 0 0 0 0
0 0 0 0 0 0 0 0 0 0 0 0 0 0 0 -0 0 0 0 0 0 0 0 0 0 0 0 0 0 0 0 0 0 0 0 0 0 0 0 0 0 0 0
0 0 0 0 0 0 0 0 0 0 0 0 0 0 0 0 0 0 0 0 0 0 0 0 0 0 0 0 0 0 0 0 0 0 0 0 0 0 0 0 0 0 0
0 0 0 0 0 0 0 0 0 0 0 0 0 0 0 0 0 0 0 0 0 0 0 0 0 0 0 0 0 0 0 0 0 0 0 0 0 0 0 0 0 0 0
0 0 0 0 0 0 0 0 0 0 0 0 0 0 0 0 0 0 0 0 0 0 0 0 0 0 0 0 0 0 0 0 0 0 0 0 0 0 0 0 0 0 0
0 0 0 0 0 0 0 0 0 0 0 0 0 0 0 0 0 0 0 0 0 0 0 0 0 0 0 0 0 0 0 0 0 0 0 0 0 0 0 0 0 0 0
0 0 0 0 0 0 0 0 0 0 0 0 0 0 0 0 0 0 0 0 0 0 0 0 0 0 0 0 0 0 0 0 0 0 0 0 0 0 0 0 0 0 0
Wind_Speed_500mb
34 38 61 61 55 55 54 53 46 32 29 22 27 26 26 26 27 32 32 36 35 34 36 37 37 36 36 42 41 39 37 36 32 30 24 18 18 17 22 27 26 31 33
37 26 39 43 40 56 62 51 34 31 29 26 28 27 25 29 32 37 40 46 41 38 38 42 41 40 41 45 44 47 46 40 42 32 22 17 24 22 21 25 25 32 36
51 34 56 48 52 60 43 54 31 23 22 23 21 23 24 29 32 37 40 40 45 43 45 45 44 44 44 47 46 50 51 44 44 41 24 14 14 16 18 21 22 27 32
45 63 61 26 21 39 39 9 21 20 19 13 16 17 19 19 22 30 32 34 40 42 44 41 38 43 45 49 49 49 46 50 43 45 40 21 13 12 12 10 10 20 31
79 80 73 27 31 33 47 29 26 20 12 7 8 10 17 21 27 28 29 33 34 33 46 46 39 39 44 47 49 51 52 50 50 47 46 43 35 26 21 15 15 25 32
63 76 60 30 31 35 35 30 23 12 7 2 2 9 20 24 21 14 19 26 19 21 31 36 35 32 40 45 49 49 48 44 49 50 47 43 41 36 29 27 17 30 39
40 40 40 35 31 33 26 29 16 8 4 7 8 18 21 21 21 17 14 13 5 9 22 28 29 32 35 41 45 47 50 47 47 50 48 46 41 36 30 28 21 25 37
50 51 53 40 21 27 19 18 9 5 10 9 17 18 17 27 28 25 17 12 10 4 10 17 18 22 29 35 41 45 47 48 47 49 51 48 45 41 36 27 19 25 30
39 49 40 33 29 21 16 11 6 10 9 11 15 14 18 21 30 33 28 21 10 2 4 8 12 15 21 29 35 37 41 42 44 50 48 46 44 40 37 31 31 29 29
48 46 47 35 28 20 16 8 8 7 8 9 12 16 14 15 19 26 24 21 21 14 3 4 6 10 16 23 29 29 30 35 38 38 42 42 41 42 39 44 37 31 30
29 41 38 29 21 17 17 18 7 6 3 6 10 12 13 20 17 19 20 22 20 17 13 7 6 5 15 20 23 25 26 30 26 39 41 40 41 36 33 40 32 24 31
20 17 32 28 19 17 14 9 7 7 7 2 5 10 13 17 18 13 18 17 19 18 18 17 16 15 13 16 19 23 25 29 29 31 32 33 38 39 30 27 26 33 37
31 27 29 29 24 13 8 2 13 5 3 1 5 3 4 9 14 13 15 15 17 20 22 20 16 19 16 14 14 13 21 20 20 21 23 23 24 22 30 29 30 27 23
31 46 42 39 28 13 4 8 14 11 7 2 5 4 2 1 5 9 11 16 19 24 24 24 24 21 17 14 9 6 17 22 25 29 30 29 33 34 26 24 23 22 14
59 44 46 36 31 24 17 12 12 18 14 7 1 3 1 4 6 8 10 14 21 22 21 21 23 21 19 18 12 9 15 23 28 29 27 22 23 23 22 23 21 19 18
41 35 31 23 32 27 23 26 27 28 28 13 11 7 4 5 6 12 15 13 15 16 14 14 13 12 12 14 12 9 8 8 6 8 13 16 16 19 20 20 22 22 20
41 33 43 46 34 29 25 26 31 33 31 37 21 19 16 19 11 13 17 14 14 13 11 13 11 11 11 11 10 9 8 8 8 7 7 9 10 14 13 13 11 14 16
48 48 39 31 24 22 21 28 28 22 26 36 27 33 32 26 21 20 18 17 14 14 13 11 9 7 7 6 12 11 10 8 7 7 9 11 11 13 12 9 6 6 9
53 39 27 20 18 17 21 23 25 24 27 34 31 45 36 34 30 28 25 21 14 11 7 7 11 13 12 10 8 7 11 10 10 11 11 12 14 17 14 6 10 17 20
34 26 22 16 14 14 16 16 14 16 18 34 41 50 45 39 38 36 36 30 21 12 7 11 11 15 20 19 13 8 4 6 13 16 16 16 10 13 11 8 10 9 10
24 20 14 10 6 8 12 11 2 3 7 15 36 55 57 50 45 39 35 30 21 10 10 11 14 21 21 22 16 10 7 7 16 19 22 22 14 8 5 3 1 4 4
17 15 11 6 6 10 12 3 2 3 7 19 32 51 54 56 49 37 40 29 17 15 17 18 19 21 23 22 16 15 12 12 14 19 18 17 12 5 1 3 2 4 3
20 16 12 13 15 12 9 4 9 7 5 18 37 51 56 52 53 44 39 31 24 20 19 17 19 22 21 18 13 5 6 17 12 11 8 10 12 12 11 8 7 6 6
16 14 15 16 18 15 14 13 15 14 14 20 30 29 31 35 37 35 30 25 21 20 23 23 24 25 23 21 19 20 21 19 16 16 22 24 22 20 20 20 21 19 13
18 21 20 19 23 20 24 21 18 16 19 23 26 29 33 34 33 35 32 27 29 23 24 26 26 25 29 28 28 28 29 27 24 21 18 18 16 14 15 18 16 17 12
22 23 19 22 27 26 27 25 23 22 26 32 33 33 32 33 31 30 36 35 29 25 23 24 18 24 25 29 34 31 28 25 20 17 15 12 7 7 9 10 9 15 17
Wind_Direction_500mb
202 237 219 201 202 204 209 208 206 215 217 208 231 240 256 264 270 270 269 271 258 256 256 251 249 247 233 227 222 220 222 213 206 211 209 222 229 223 226 222 232 238 240
220 305 229 204 218 220 212 206 201 206 219 225 236 247 255 255 263 266 266 269 256 252 253 254 250 249 237 229 224 214 217 220 211 209 208 207 222 223 221 232 247 254 251
191 226 209 184 220 227 228 193 189 210 209 236 240 259 269 270 271 269 264 261 259 259 258 259 249 243 238 227 226 220 219 217 214 207 201 195 211 186 212 230 244 258 262
183 211 206 233 232 212 242 32 211 193 207 227 248 267 280 284 289 283 276 261 253 253 250 248 246 239 233 230 225 223 224 219 216 211 212 215 181 186 188 191 228 266 274
212 199 205 232 212 174 204 212 181 200 213 242 278 339 321 320 308 293 278 274 262 255 243 240 240 234 229 224 222 222 223 220 223 223 225 226 230 229 241 236 260 292 293
169 186 205 184 164 161 192 173 169 162 244 350 31 359 346 344 341 332 311 301 258 245 221 222 235 234 225 222 220 221 224 224 226 227 230 231 225 228 229 239 237 276 284
162 188 191 165 162 173 171 156 146 189 143 127 72 27 16 9 5 359 358 1 303 220 210 218 234 232 222 220 223 225 224 224 229 229 230 233 235 234 230 231 229 265 272
173 160 156 164 158 157 146 134 135 181 146 121 55 45 47 43 31 32 33 27 33 110 199 213 226 227 223 222 224 226 227 228 231 230 232 235 233 229 236 225 228 263 270
154 143 153 159 152 149 157 143 171 148 136 97 64 58 67 58 49 46 45 39 30 19 180 207 228 225 224 222 220 227 228 227 232 230 226 229 230 227 218 214 218 244 273
148 140 147 147 139 149 147 154 120 139 133 107 70 57 72 54 44 44 50 51 45 31 313 213 219 220 213 212 216 221 224 227 234 215 219 222 227 223 225 214 220 239 257
142 147 151 149 136 150 152 134 68 22 153 87 72 56 64 44 45 46 49 49 38 42 65 94 115 170 198 203 200 211 221 226 221 216 221 222 222 221 214 216 217 240 256
151 219 167 164 150 140 127 101 39 30 2 50 68 54 35 27 37 48 45 42 44 47 69 66 77 95 123 164 180 189 200 206 196 206 218 220 212 188 195 219 224 230 237
132 205 213 189 174 163 137 323 335 284 351 208 46 79 55 8 27 51 44 49 45 66 74 81 86 82 101 116 132 166 192 205 194 188 188 185 181 200 216 229 220 201 191
164 215 218 208 203 185 186 303 322 235 217 209 353 49 69 15 38 68 56 69 71 85 87 87 88 93 94 91 94 160 176 172 170 171 179 183 196 195 180 191 208 227 247
197 221 216 212 209 203 208 231 253 227 219 194 227 108 87 144 85 109 108 85 105 111 96 87 91 99 104 100 101 127 156 162 165 165 168 163 166 176 189 211 230 222 225
197 201 199 210 201 208 209 221 219 211 217 222 254 229 244 145 136 155 151 135 129 128 113 109 97 104 114 117 119 115 131 156 188 219 237 251 252 246 244 247 247 244 244
182 223 192 202 202 200 195 212 227 222 212 215 229 230 212 188 213 166 158 152 142 138 134 121 113 107 105 117 113 117 157 150 134 149 190 211 214 211 222 260 266 277 254
195 189 187 192 200 215 224 229 238 232 208 208 217 200 186 196 188 179 170 155 148 151 150 149 152 158 153 128 91 61 70 96 115 115 95 95 101 98 85 71 72 108 107
176 175 181 202 233 252 256 257 260 252 222 202 199 194 201 198 197 190 180 173 165 146 145 165 169 168 165 131 125 89 73 75 115 107 107 104 104 98 95 105 133 129 113
161 181 199 217 247 264 276 280 273 243 230 207 202 195 197 204 206 198 188 182 184 174 177 194 183 163 156 163 173 174 172 220 165 148 141 130 123 117 109 119 116 117 112
172 186 204 210 241 289 320 338 15 187 205 201 208 198 201 206 213 203 187 181 183 187 169 181 186 178 180 182 183 200 211 185 162 147 136 124 123 122 123 124 354 351 75
175 172 163 137 58 45 62 48 89 105 174 178 190 183 192 195 196 193 179 180 194 194 178 170 173 172 180 185 160 146 130 151 168 153 144 142 141 133 260 311 306 160 186
152 136 112 88 90 92 110 165 112 109 152 180 179 181 180 183 171 179 174 170 177 166 158 160 167 169 168 175 160 180 149 144 162 151 148 125 114 101 80 68 41 41 43
130 106 91 101 105 111 113 118 117 130 150 157 157 161 169 156 154 158 153 140 142 149 151 150 151 149 146 146 141 136 133 135 132 114 107 104 97 90 81 77 69 58 44
120 111 112 113 117 117 106 104 108 119 137 134 136 141 142 139 137 129 124 129 127 124 129 134 133 138 140 135 132 131 128 124 120 113 108 100 84 69 68 64 58 37 53
130 120 115 131 127 124 120 118 116 122 125 125 124 124 123 122 124 126 123 118 116 120 128 129 132 138 137 133 130 127 122 113 98 93 97 100 94 94 71 90 43 23 20
Wind_Speed_850mb
34 38 61 61 55 55 54 53 46 32 29 22 27 26 26 26 27 32 32 36 35 34 36 37 37 36 36 42 41 39 37 36 32 30 24 18 18 17 22 27 26 31 33
37 26 39 43 40 56 62 51 34 31 29 26 28 27 25 29 32 37 40 46 41 38 38 42 41 40 41 45 44 47 46 40 42 32 22 17 24 22 21 25 25 32 36
51 34 56 48 52 60 43 54 31 23 22 23 21 23 24 29 32 37 40 40 45 43 45 45 44 44 44 47 46 50 51 44 44 41 24 14 14 16 18 21 22 27 32
45 63 61 26 21 39 39 9 21 20 19 13 16 17 19 19 22 30 32 34 40 42 44 41 38 43 45 49 49 49 46 50 43 45 40 21 13 12 12 10 10 20 31
79 80 73 27 31 33 47 29 26 20 12 7 8 10 17 21 27 28 29 33 34 33 46 46 39 39 44 47 49 51 52 50 50 47 46 43 35 26 21 15 15 25 32
63 76 60 30 31 35 35 30 23 12 7 2 2 9 20 24 21 14 19 26 19 21 31 36 35 32 40 45 49 49 48 44 49 50 47 43 41 36 29 27 17 30 39
40 40 40 35 31 33 26 29 16 8 4 7 8 18 21 21 21 17 14 13 5 9 22 28 29 32 35 41 45 47 50 47 47 50 48 46 41 36 30 28 21 25 37
50 51 53 40 21 27 19 18 9 5 10 9 17 18 17 27 28 25 17 12 10 4 10 17 18 22 29 35 41 45 47 48 47 49 51 48 45 41 36 27 19 25 30
39 49 40 33 29 21 16 11 6 10 9 11 15 14 18 21 30 33 28 21 10 2 4 8 12 15 21 29 35 37 41 42 44 50 48 46 44 40 37 31 31 29 29
48 46 47 35 28 20 16 8 8 7 8 9 12 16 14 15 19 26 24 21 21 14 3 4 6 10 16 23 29 29 30 35 38 38 42 42 41 42 39 44 37 31 30
29 41 38 29 21 17 17 18 7 6 3 6 10 12 13 20 17 19 20 22 20 17 13 7 6 5 15 20 23 25 26 30 26 39 41 40 41 36 33 40 32 24 31
20 17 32 28 19 17 14 9 7 7 7 2 5 10 13 17 18 13 18 17 19 18 18 17 16 15 13 16 19 23 25 29 29 31 32 33 38 39 30 27 26 33 37
31 27 29 29 24 13 8 2 13 5 3 1 5 3 4 9 14 13 15 15 17 20 22 20 16 19 16 14 14 13 21 20 20 21 23 23 24 22 30 29 30 27 23
31 46 42 39 28 13 4 8 14 11 7 2 5 4 2 1 5 9 11 16 19 24 24 24 24 21 17 14 9 6 17 22 25 29 30 29 33 34 26 24 23 22 14
59 44 46 36 31 24 17 12 12 18 14 7 1 3 1 4 6 8 10 14 21 22 21 21 23 21 19 18 12 9 15 23 28 29 27 22 23 23 22 23 21 19 18
41 35 31 23 32 27 23 26 27 28 28 13 11 7 4 5 6 12 15 13 15 16 14 14 13 12 12 14 12 9 8 8 6 8 13 16 16 19 20 20 22 22 20
41 33 43 46 34 29 25 26 31 33 31 37 21 19 16 19 11 13 17 14 14 13 11 13 11 11 11 11 10 9 8 8 8 7 7 9 10 14 13 13 11 14 16
48 48 39 31 24 22 21 28 28 22 26 36 27 33 32 26 21 20 18 17 14 14 13 11 9 7 7 6 12 11 10 8 7 7 9 11 11 13 12 9 6 6 9
53 39 27 20 18 17 21 23 25 24 27 34 31 45 36 34 30 28 25 21 14 11 7 7 11 13 12 10 8 7 11 10 10 11 11 12 14 17 14 6 10 17 20
34 26 22 16 14 14 16 16 14 16 18 34 41 50 45 39 38 36 36 30 21 12 7 11 11 15 20 19 13 8 4 6 13 16 16 16 10 13 11 8 10 9 10
24 20 14 10 6 8 12 11 2 3 7 15 36 55 57 50 45 39 35 30 21 10 10 11 14 21 21 22 16 10 7 7 16 19 22 22 14 8 5 3 1 4 4
17 15 11 6 6 10 12 3 2 3 7 19 32 51 54 56 49 37 40 29 17 15 17 18 19 21 23 22 16 15 12 12 14 19 18 17 12 5 1 3 2 4 3
20 16 12 13 15 12 9 4 9 7 5 18 37 51 56 52 53 44 39 31 24 20 19 17 19 22 21 18 13 5 6 17 12 11 8 10 12 12 11 8 7 6 6
16 14 15 16 18 15 14 13 15 14 14 20 30 29 31 35 37 35 30 25 21 20 23 23 24 25 23 21 19 20 21 19 16 16 22 24 22 20 20 20 21 19 13
18 21 20 19 23 20 24 21 18 16 19 23 26 29 33 34 33 35 32 27 29 23 24 26 26 25 29 28 28 28 29 27 24 21 18 18 16 14 15 18 16 17 12
22 23 19 22 27 26 27 25 23 22 26 32 33 33 32 33 31 30 36 35 29 25 23 24 18 24 25 29 34 31 28 25 20 17 15 12 7 7 9 10 9 15 17
Wind_Direction_850mb
202 237 219 201 202 204 209 208 206 215 217 208 231 240 256 264 270 270 269 271 258 256 256 251 249 247 233 227 222 220 222 213 206 211 209 222 229 223 226 222 232 238 240
220 305 229 204 218 220 212 206 201 206 219 225 236 247 255 255 263 266 266 269 256 252 253 254 250 249 237 229 224 214 217 220 211 209 208 207 222 223 221 232 247 254 251
191 226 209 184 220 227 228 193 189 210 209 236 240 259 269 270 271 269 264 261 259 259 258 259 249 243 238 227 226 220 219 217 214 207 201 195 211 186 212 230 244 258 262
183 211 206 233 232 212 242 32 211 193 207 227 248 267 280 284 289 283 276 261 253 253 250 248 246 239 233 230 225 223 224 219 216 211 212 215 181 186 188 191 228 266 274
212 199 205 232 212 174 204 212 181 200 213 242 278 339 321 320 308 293 278 274 262 255 243 240 240 234 229 224 222 222 223 220 223 223 225 226 230 229 241 236 260 292 293
169 186 205 184 164 161 192 173 169 162 244 350 31 359 346 344 341 332 311 301 258 245 221 222 235 234 225 222 220 221 224 224 226 227 230 231 225 228 229 239 237 276 284
162 188 191 165 162 173 171 156 146 189 143 127 72 27 16 9 5 359 358 1 303 220 210 218 234 232 222 220 223 225 224 224 229 229 230 233 235 234 230 231 229 265 272
173 160 156 164 158 157 146 134 135 181 146 121 55 45 47 43 31 32 33 27 33 110 199 213 226 227 223 222 224 226 227 228 231 230 232 235 233 229 236 225 228 263 270
154 143 153 159 152 149 157 143 171 148 136 97 64 58 67 58 49 46 45 39 30 19 180 207 228 225 224 222 220 227 228 227 232 230 226 229 230 227 218 214 218 244 273
148 140 147 147 139 149 147 154 120 139 133 107 70 57 72 54 44 44 50 51 45 31 313 213 219 220 213 212 216 221 224 227 234 215 219 222 227 223 225 214 220 239 257
142 147 151 149 136 150 152 134 68 22 153 87 72 56 64 44 45 46 49 49 38 42 65 94 115 170 198 203 200 211 221 226 221 216 221 222 222 221 214 216 217 240 256
151 219 167 164 150 140 127 101 39 30 2 50 68 54 35 27 37 48 45 42 44 47 69 66 77 95 123 164 180 189 200 206 196 206 218 220 212 188 195 219 224 230 237
132 205 213 189 174 163 137 323 335 284 351 208 46 79 55 8 27 51 44 49 45 66 74 81 86 82 101 116 132 166 192 205 194 188 188 185 181 200 216 229 220 201 191
164 215 218 208 203 185 186 303 322 235 217 209 353 49 69 15 38 68 56 69 71 85 87 87 88 93 94 91 94 160 176 172 170 171 179 183 196 195 180 191 208 227 247
197 221 216 212 209 203 208 231 253 227 219 194 227 108 87 144 85 109 108 85 105 111 96 87 91 99 104 100 101 127 156 162 165 165 168 163 166 176 189 211 230 222 225
197 201 199 210 201 208 209 221 219 211 217 222 254 229 244 145 136 155 151 135 129 128 113 109 97 104 114 117 119 115 131 156 188 219 237 251 252 246 244 247 247 244 244
182 223 192 202 202 200 195 212 227 222 212 215 229 230 212 188 213 166 158 152 142 138 134 121 113 107 105 117 113 117 157 150 134 149 190 211 214 211 222 260 266 277 254
195 189 187 192 200 215 224 229 238 232 208 208 217 200 186 196 188 179 170 155 148 151 150 149 152 158 153 128 91 61 70 96 115 115 95 95 101 98 85 71 72 108 107
176 175 181 202 233 252 256 257 260 252 222 202 199 194 201 198 197 190 180 173 165 146 145 165 169 168 165 131 125 89 73 75 115 107 107 104 104 98 95 105 133 129 113
161 181 199 217 247 264 276 280 273 243 230 207 202 195 197 204 206 198 188 182 184 174 177 194 183 163 156 163 173 174 172 220 165 148 141 130 123 117 109 119 116 117 112
172 186 204 210 241 289 320 338 15 187 205 201 208 198 201 206 213 203 187 181 183 187 169 181 186 178 180 182 183 200 211 185 162 147 136 124 123 122 123 124 354 351 75
175 172 163 137 58 45 62 48 89 105 174 178 190 183 192 195 196 193 179 180 194 194 178 170 173 172 180 185 160 146 130 151 168 153 144 142 141 133 260 311 306 160 186
152 136 112 88 90 92 110 165 112 109 152 180 179 181 180 183 171 179 174 170 177 166 158 160 167 169 168 175 160 180 149 144 162 151 148 125 114 101 80 68 41 41 43
130 106 91 101 105 111 113 118 117 130 150 157 157 161 169 156 154 158 153 140 142 149 151 150 151 149 146 146 141 136 133 135 132 114 107 104 97 90 81 77 69 58 44
120 111 112 113 117 117 106 104 108 119 137 134 136 141 142 139 137 129 124 129 127 124 129 134 133 138 140 135 132 131 128 124 120 113 108 100 84 69 68 64 58 37 53
130 120 115 131 127 124 120 118 116 122 125 125 124 124 123 122 124 126 123 118 116 120 128 129 132 138 137 133 130 127 122 113 98 93 97 100 94 94 71 90 43 23 20